Location: *
(46.1200°N, 11.2700°E)
Time: 04:07:01
(UTC+00:00)

Meteor 1-18 Rocket - Pass Details

Date: 02 March 2021
Orbit: 836 x 909 km, 81.2° (Epoch: 13 April)

Event Time Altitude Azimuth Distance (km) Brightness Sun altitude
Rises 17:53:15 0° 351° (N) 3,549 7.6 -9.5°
Reaches altitude 10° 17:55:45 10° 354° (N) 2,605 6.8 -10.0°
Maximum altitude 18:01:41 66° 77° (ENE) 990 4.3 -11.0°
Drops below altitude 10° 18:07:32 10° 159° (SSE) 2,574 6.5 -12.0°
Sets 18:10:00 0° 162° (SSE) 3,503 7.2 -12.4°
